GFSFLT2_sfc_rhum_000.txt.gz
RH
40 41 62 92 91 90 92 92 89 87 88 89 90 89 85 82 79 76 77 77 76 76 77 78 78 79 80 84 88 84 49 44
42 47 42 46 48 88 89 90 92 88 85 84 87 86 81 78 73 76 76 75 76 77 78 76 78 81 81 81 78 73 47 44
47 42 46 46 41 56 80 86 89 90 80 84 78 45 49 51 79 78 78 78 79 76 76 72 70 77 79 80 77 39 43 39
44 51 49 49 37 46 48 47 44 50 50 57 46 55 53 57 70 83 82 81 77 79 82 82 72 36 37 63 36 45 39 41
44 54 56 51 41 39 35 36 41 45 59 59 54 56 52 49 48 46 50 73 46 51 50 43 52 48 41 46 42 44 33 33
43 49 56 58 40 37 38 39 40 42 45 62 57 50 52 53 45 44 47 46 54 49 47 57 49 43 43 43 40 33 26 28
46 50 54 50 56 44 48 49 41 46 46 48 54 49 51 46 45 41 42 43 45 48 45 41 34 32 35 36 33 34 35 25
47 49 51 43 46 52 47 44 41 41 40 41 53 54 49 42 38 35 34 34 38 42 41 37 32 31 33 36 33 30 32 33
45 46 40 43 42 41 38 32 37 33 33 42 45 46 43 45 37 36 35 36 45 47 48 41 36 29 32 33 32 34 29 32
39 37 33 37 38 36 33 30 35 32 34 36 43 45 46 46 38 37 37 40 38 40 41 38 36 31 30 28 28 28 30 32
37 36 25 30 37 35 38 41 34 26 30 28 34 39 42 44 38 37 42 39 39 39 40 40 39 32 28 28 29 28 28 23
34 28 29 36 34 37 29 30 28 28 26 26 31 30 37 40 37 43 44 42 40 38 45 40 37 36 24 23 28 30 29 28
32 32 37 30 26 26 24 26 25 26 26 33 36 34 36 40 36 39 41 41 44 49 47 49 46 40 40 34 32 34 38 29
31 28 29 27 24 28 31 34 28 30 28 32 30 33 32 32 37 37 38 38 44 47 51 50 47 44 45 40 38 31 31 33
29 30 31 33 30 26 26 27 27 27 28 26 29 33 32 34 36 39 42 40 38 42 44 48 45 44 47 47 44 40 33 27
32 32 30 31 34 32 38 31 32 33 33 30 31 32 33 32 35 40 43 40 42 41 34 43 45 45 40 38 49 46 48 44
36 33 32 33 32 37 34 38 36 34 34 35 32 29 32 33 39 44 45 42 44 51 53 52 49 50 47 46 57 49 48 50
38 33 32 35 36 37 44 47 44 38 34 33 30 31 31 36 40 45 47 47 48 48 54 58 57 58 55 58 56 68 58 49
35 34 32 35 39 38 39 39 40 38 37 34 38 35 35 40 47 47 42 46 47 48 53 56 64 68 72 77 83 89 86 87
38 36 34 33 36 34 32 38 38 36 38 39 40 41 42 48 48 46 47 48 50 54 63 64 62 64 68 75 79 79 86 94

GFSFLT2_sfc_rhum_003.txt.gz
RH
32 37 64 89 89 90 91 89 87 87 87 88 88 86 82 78 76 76 76 74 74 73 73 73 75 77 79 82 85 82 52 37
34 35 34 40 52 89 90 91 90 86 84 83 84 84 80 74 73 76 74 73 74 72 74 73 72 78 79 79 78 81 49 37
33 33 36 37 33 58 83 86 87 87 78 82 76 46 44 51 79 77 76 77 76 73 73 70 69 74 75 71 77 40 40 35
36 40 40 38 26 36 38 37 40 43 43 47 38 46 45 46 67 83 82 80 77 76 76 76 78 35 38 67 41 37 37 36
34 48 45 38 33 32 29 30 35 38 46 48 46 45 44 42 42 44 50 71 43 55 51 43 48 44 38 39 36 38 30 29
35 43 45 43 32 30 31 31 34 34 39 46 47 42 44 45 38 38 38 34 43 42 40 46 46 38 36 39 37 32 22 24
31 40 39 36 42 37 40 41 36 40 37 39 40 42 46 40 39 34 33 31 34 37 37 36 36 33 31 33 32 32 33 28
32 36 37 31 34 41 42 39 35 33 32 34 40 42 45 39 36 32 31 30 31 34 36 38 34 30 31 33 34 29 28 32
34 35 33 31 34 36 32 27 29 29 29 34 35 38 40 43 38 36 33 34 40 37 37 36 36 32 30 30 32 35 32 32
30 30 29 30 33 30 27 27 30 29 29 30 35 37 39 43 37 37 36 39 36 36 34 35 35 34 36 30 28 29 31 32
28 34 25 27 33 28 31 33 30 24 26 25 30 32 33 38 36 39 47 40 42 41 38 41 39 37 34 32 31 29 32 24
26 30 23 27 28 31 25 26 26 25 25 26 30 30 36 38 37 44 43 40 41 41 50 42 44 42 33 31 36 31 31 34
24 29 34 26 25 26 24 25 25 26 25 30 33 32 33 36 33 36 40 39 44 48 47 50 47 45 46 45 42 41 40 32
30 30 26 23 23 26 31 32 28 28 27 30 28 32 33 33 36 34 38 36 46 49 52 48 46 46 50 49 52 45 37 37
26 27 28 30 27 25 26 26 27 26 28 28 29 36 31 31 33 36 42 41 39 47 46 49 45 44 49 50 55 52 44 36
29 28 27 29 33 30 35 32 33 34 33 31 30 32 28 26 29 36 44 42 47 44 34 51 50 48 44 36 46 50 61 61
32 30 29 30 30 35 36 39 38 38 35 40 40 32 30 28 31 37 44 40 46 51 53 50 47 49 47 50 55 53 56 67
35 30 29 32 34 36 42 54 51 38 36 34 30 32 30 33 31 39 45 45 45 47 47 53 62 58 57 59 66 71 72 71
32 29 28 30 35 37 35 35 36 36 35 35 37 34 34 39 42 45 41 42 42 49 65 69 74 80 76 70 64 72 75 79
36 34 32 28 32 33 33 34 34 34 37 37 38 39 40 40 42 44 43 43 54 58 55 60 62 66 66 69 68 72 78 85

GFSFLT2_sfc_rhum_009.txt.gz
RH
92 89 88 92 93 92 92 92 91 90 89 89 87 86 85 81 78 74 71 70 67 66 67 71 70 74 78 81 81 82 84 78
78 85 86 95 94 92 91 90 89 87 86 88 87 85 83 83 81 78 74 70 66 64 69 73 72 75 77 80 82 82 67 76
68 70 76 85 92 86 89 89 88 86 86 86 88 89 84 81 83 81 77 77 76 74 75 76 77 76 78 80 81 83 72 71
58 59 75 72 52 85 91 82 89 88 87 88 87 89 88 74 81 82 79 80 81 83 82 81 82 85 72 78 88 78 64 61
63 57 57 58 66 83 87 86 90 87 80 70 72 71 80 82 93 91 95 90 92 88 89 90 87 83 68 62 60 56 64 55
61 62 56 63 57 68 66 69 70 80 74 71 77 82 74 74 75 78 86 91 95 88 82 76 77 70 62 55 52 55 60 56
60 63 64 60 64 72 68 72 67 67 73 66 69 76 72 72 73 68 66 67 66 64 62 61 65 60 57 53 48 53 54 55
80 76 67 59 65 69 67 70 65 72 67 65 64 69 73 74 71 72 67 69 68 66 63 65 66 66 61 56 50 50 51 54
86 92 83 67 60 60 67 48 50 60 60 57 59 60 62 66 72 75 75 74 72 70 70 73 71 66 69 63 59 56 55 52
80 75 75 77 62 54 51 56 58 60 62 67 62 62 66 71 69 72 77 77 76 74 76 75 76 76 75 71 69 62 56 58
78 82 89 76 53 52 59 50 50 55 61 62 57 63 64 68 68 71 74 78 80 79 78 84 85 78 65 59 65 67 66 50
78 88 81 61 61 58 63 57 58 59 59 57 59 60 60 61 61 62 65 69 73 70 74 71 77 72 54 54 74 73 76 75
76 81 68 67 61 67 62 55 56 60 53 58 56 52 52 56 61 66 70 69 72 70 77 72 67 75 80 64 72 69 67 62
67 65 65 59 57 62 58 58 57 57 55 57 59 60 57 51 63 67 69 70 70 70 73 79 78 78 80 78 79 66 69 61
50 48 48 53 56 47 49 52 55 58 62 62 59 65 58 55 61 67 72 73 72 73 78 76 84 81 81 87 96 96 84 75
49 47 44 44 51 55 56 62 68 71 73 69 70 59 56 56 58 65 73 74 73 80 68 84 88 91 88 70 86 84 85 80
54 48 44 45 47 53 65 65 68 69 72 66 62 62 59 58 62 66 71 77 75 85 88 88 91 91 91 88 85 82 81 82
46 46 47 48 51 58 58 57 64 69 68 68 66 65 67 61 61 68 72 77 84 85 89 88 90 86 82 83 85 91 93 90
54 52 48 53 54 57 62 63 64 68 67 66 62 66 68 75 75 77 80 80 83 84 87 88 91 94 93 94 94 94 92 91
55 50 49 54 65 62 63 64 68 61 57 58 70 78 77 75 81 80 80 80 85 86 90 87 81 88 89 93 91 85 94 94

GFSFLT2_sfc_rhum_012.txt.gz
RH
97 95 93 93 92 92 92 93 91 91 90 87 85 85 85 80 77 73 69 65 63 62 67 70 70 72 74 76 80 83 74 75
96 96 96 96 95 92 91 88 88 88 88 85 85 83 84 84 82 79 74 69 67 69 71 73 73 75 78 81 81 81 76 74
92 92 93 96 94 89 89 86 85 85 85 85 90 90 86 85 85 80 78 76 76 77 78 77 76 78 80 78 80 84 75 69
75 82 87 89 65 92 93 86 90 90 89 90 92 94 92 79 86 83 83 79 81 83 85 86 85 90 85 69 74 72 63 62
70 76 77 78 73 89 92 94 95 93 91 93 93 88 92 94 94 95 95 89 95 91 92 92 92 92 85 69 58 55 64 60
63 74 72 72 80 89 87 86 90 92 88 80 82 85 79 85 88 86 87 84 93 93 92 80 79 79 79 68 58 55 60 60
76 69 68 68 71 76 75 74 80 82 78 74 78 79 73 75 74 74 74 74 73 72 69 64 66 66 66 64 59 54 55 59
84 78 74 61 70 73 74 74 72 79 73 70 69 78 74 74 74 74 77 81 81 77 74 75 76 76 74 71 66 59 54 56
76 75 78 72 67 68 67 61 68 70 66 70 69 71 72 76 78 75 77 79 78 80 78 81 80 73 74 73 71 67 66 60
77 70 82 76 68 67 58 54 64 66 71 73 70 71 70 71 68 67 74 75 77 77 80 78 79 81 82 76 74 73 68 64
82 90 85 74 71 75 66 64 66 64 70 70 66 64 63 64 62 63 71 72 76 76 74 82 83 74 63 62 72 77 77 66
92 90 85 81 81 81 74 65 64 65 63 61 56 57 57 62 64 70 72 71 73 74 73 73 77 82 54 63 74 76 74 78
82 70 71 73 68 80 72 67 59 62 60 59 60 61 64 66 72 73 76 72 73 71 75 78 76 81 80 66 76 68 73 75
75 65 61 59 71 74 75 65 56 56 57 58 67 65 59 53 68 70 76 73 71 72 79 83 84 82 84 91 81 66 82 67
53 52 53 56 54 50 53 55 59 64 69 68 59 58 60 63 66 72 74 75 76 78 83 84 90 90 89 87 93 95 94 77
52 48 48 50 53 55 57 65 68 74 80 71 62 63 63 62 67 72 77 82 84 88 82 92 90 92 92 75 88 83 78 79
55 51 50 51 53 56 65 64 74 79 72 66 62 65 63 60 66 68 74 80 85 87 94 93 95 95 95 94 91 90 87 88
55 54 56 55 58 65 66 68 70 70 66 62 63 69 73 71 68 82 84 88 89 91 92 90 92 85 86 90 96 94 94 95
58 56 62 67 66 67 68 68 67 57 58 62 76 72 74 79 82 85 87 87 87 87 88 88 87 82 84 90 91 93 92 87
60 55 56 62 64 63 63 63 64 62 60 71 77 79 81 84 84 79 78 81 86 88 91 93 90 95 94 93 87 94 88 92

GFSFLT2_sfc_rhum_015.txt.gz
RH
99 99 96 95 94 94 92 91 91 90 90 87 84 84 82 78 75 70 67 66 67 68 71 74 74 76 79 82 82 82 78 77
99 98 97 96 96 92 92 90 89 90 89 87 83 81 82 82 82 78 73 69 70 72 74 76 77 81 82 82 82 76 72 73
97 98 97 96 95 90 89 87 87 88 87 84 88 89 88 87 86 82 79 75 76 78 81 83 83 83 83 79 73 74 70 66
95 95 96 96 76 93 94 89 93 92 91 91 92 93 93 82 87 85 85 84 83 84 86 87 89 94 91 78 68 61 59 62
82 85 91 90 78 96 97 97 96 94 92 93 94 92 96 96 97 95 95 88 95 93 92 96 90 94 93 88 70 59 61 60
74 82 83 86 88 90 90 90 93 94 92 89 92 90 86 91 95 86 82 81 82 85 85 77 72 74 80 83 75 65 61 61
76 83 81 78 83 89 89 87 90 90 90 86 85 80 80 82 78 81 80 82 83 80 79 76 78 77 75 76 73 69 63 61
83 81 75 72 78 84 84 84 83 86 85 80 78 81 79 78 80 76 76 81 81 82 82 82 80 78 71 70 71 74 70 65
88 86 80 79 77 77 81 76 79 84 76 74 74 78 80 78 72 69 74 78 75 77 76 75 73 70 70 72 72 69 74 71
92 84 83 85 87 91 83 71 74 76 80 81 75 72 68 68 66 68 75 76 77 75 80 70 74 77 78 72 70 75 70 74
96 93 94 89 91 91 85 77 71 74 73 70 66 64 65 68 70 77 78 76 78 77 73 76 79 77 67 64 75 74 77 70
92 92 91 87 90 79 76 64 69 70 68 65 63 67 66 70 70 79 77 74 75 74 73 75 78 82 62 61 72 74 80 82
86 88 86 79 75 80 78 90 84 77 67 64 66 60 63 69 72 76 76 72 73 74 79 82 79 84 85 68 78 73 74 74
76 76 70 69 81 89 91 83 68 66 64 65 63 65 63 61 72 75 76 78 79 81 86 89 90 91 92 95 89 72 83 70
56 57 57 66 73 70 59 58 64 72 74 64 64 66 68 71 75 80 84 86 89 94 93 94 97 93 91 94 96 94 95 79
54 52 54 54 56 59 60 65 68 82 80 69 71 73 74 73 75 80 85 90 87 87 88 95 96 98 95 83 91 90 88 88
60 58 59 58 62 67 74 70 81 78 72 68 74 73 69 75 74 74 79 87 87 88 90 94 95 96 94 92 86 92 91 95
69 69 71 70 68 69 72 72 70 68 64 63 70 75 84 78 75 82 85 89 88 91 90 87 90 92 92 88 93 96 97 98
68 66 65 65 66 66 66 66 65 62 60 66 78 86 91 85 82 81 82 86 87 89 89 90 91 94 95 96 96 95 92 90
64 59 61 60 61 61 63 64 69 68 66 75 84 86 84 86 82 77 76 79 84 89 92 92 91 94 91 93 95 95 93 92

GFSFLT2_sfc_rhum_021.txt.gz
RH
81 78 85 96 96 95 92 92 90 89 87 85 83 81 81 78 76 73 72 76 76 76 78 82 82 82 83 84 76 70 36 34
80 82 76 82 83 95 93 90 89 88 87 85 83 80 80 79 77 78 77 76 76 79 83 84 84 84 84 86 78 65 38 34
88 88 85 83 79 80 86 88 88 87 83 82 80 62 62 64 78 82 81 83 82 81 83 85 81 74 78 84 76 42 43 37
88 89 85 80 68 73 71 68 64 67 66 70 65 70 66 65 75 86 84 80 80 82 82 76 61 44 44 60 44 50 43 43
82 84 80 74 68 69 66 66 66 68 73 72 73 71 74 70 66 58 60 65 51 53 50 47 56 51 48 49 45 44 42 40
74 75 77 79 67 66 67 65 68 69 72 77 75 69 71 70 54 56 59 53 56 55 51 58 54 50 49 49 49 41 40 40
69 73 74 74 74 71 73 75 72 80 74 74 68 60 66 59 61 53 52 49 51 51 49 47 47 44 42 42 39 42 41 34
72 71 70 68 73 77 77 88 86 84 82 78 74 62 66 59 54 50 51 50 50 49 48 43 42 42 40 42 40 39 38 43
78 78 73 74 76 86 92 88 82 80 87 83 77 65 63 58 53 53 53 52 52 48 46 44 39 37 39 37 35 39 36 45
81 78 78 85 88 91 93 93 92 88 87 80 69 62 59 59 60 58 58 52 48 57 45 40 40 40 41 35 37 34 41 47
84 84 87 90 96 98 92 77 64 63 68 63 66 58 61 62 67 62 54 50 51 47 46 48 43 41 37 35 38 31 38 40
87 91 96 98 96 86 69 73 66 67 78 66 53 51 58 53 54 57 51 49 50 48 51 46 49 52 38 37 40 35 45 46
88 96 94 91 74 68 58 76 82 62 49 53 52 51 53 55 51 52 52 51 58 60 53 55 44 54 39 38 35 46 52 44
81 77 78 60 52 59 63 62 54 48 49 55 53 55 52 51 54 53 55 50 60 62 61 50 50 58 53 43 37 33 45 45
68 57 56 55 59 54 52 56 55 50 47 47 52 52 48 53 57 56 57 55 56 62 61 60 48 50 58 53 49 43 50 37
54 52 50 52 52 53 59 52 54 54 50 49 46 54 53 51 55 60 62 58 60 55 50 54 51 46 45 46 54 55 53 51
56 56 54 56 56 58 53 55 52 50 51 55 55 55 56 56 60 62 60 54 58 57 57 54 50 47 44 45 48 49 50 62
59 52 50 49 49 51 52 52 51 47 51 52 52 53 55 63 62 60 59 56 58 56 59 57 53 52 46 47 50 54 52 58
53 47 49 50 51 49 50 50 51 52 52 52 56 54 56 59 67 64 52 57 58 58 57 56 54 51 56 53 58 58 56 57
50 46 47 48 51 52 54 56 53 53 57 56 56 60 62 65 67 59 56 58 57 60 59 59 62 60 62 57 52 54 63 64

GFSFLT2_sfc_rhum_024.txt.gz
RH
66 60 74 96 95 92 92 90 89 87 85 83 80 81 80 76 72 71 71 73 74 76 80 81 80 80 80 81 70 65 29 24
69 66 60 61 67 92 91 89 88 86 85 82 81 79 78 76 77 78 76 76 77 79 81 80 74 76 80 82 77 66 27 26
70 55 58 56 52 69 83 87 86 85 78 80 74 42 46 48 80 83 81 78 78 78 78 74 72 67 72 71 76 26 28 25
77 70 67 62 49 56 51 45 43 47 47 52 44 54 50 48 66 80 73 70 75 73 69 65 51 28 28 48 28 32 26 27
80 70 67 54 48 43 39 40 47 51 58 56 57 54 55 48 41 37 41 54 34 40 37 32 41 36 33 35 32 29 26 25
53 55 60 57 41 39 45 46 51 57 59 64 62 54 55 52 36 39 43 37 41 37 33 42 40 37 35 35 34 30 25 23
48 51 54 53 53 52 56 60 61 64 62 66 59 50 54 44 46 39 39 36 35 36 35 34 34 32 33 33 31 31 31 23
50 47 51 50 54 61 60 61 61 67 76 82 82 70 57 46 44 39 37 36 36 36 38 33 32 33 31 34 34 31 31 32
56 56 53 58 62 65 70 74 80 71 79 80 82 76 62 49 43 42 43 42 41 37 37 33 32 29 31 30 29 30 29 33
65 65 65 69 75 76 88 92 84 76 77 77 68 63 68 52 50 50 48 42 38 36 36 34 33 33 34 31 30 31 31 31
68 68 72 84 95 93 89 78 60 61 69 66 70 66 57 52 47 47 44 38 40 37 37 40 40 37 35 30 30 29 28 18
70 77 84 92 93 78 64 55 59 50 53 47 43 43 47 42 43 46 39 38 41 44 48 42 40 37 31 23 27 26 25 28
76 80 79 75 72 62 52 52 53 45 39 44 43 42 42 42 37 41 44 42 49 47 41 40 36 38 41 30 27 26 36 33
72 67 62 53 46 41 41 44 41 38 39 44 40 41 38 38 43 40 44 38 45 48 49 44 36 37 45 38 33 27 22 33
57 54 52 41 42 43 44 45 42 38 38 36 39 40 36 39 42 41 40 39 36 48 47 47 42 33 38 39 42 37 34 28
45 42 40 43 42 39 41 36 39 41 39 37 34 40 37 34 38 44 46 42 46 43 36 45 42 37 33 28 38 39 42 42
44 42 40 41 42 43 41 42 39 36 35 37 38 37 39 38 40 46 50 47 46 47 46 44 38 40 37 36 38 34 36 38
45 40 40 40 39 40 41 39 32 28 32 32 29 31 33 37 41 49 50 49 47 46 49 47 46 42 36 37 38 38 38 39
43 39 40 39 37 33 34 35 36 32 33 32 36 30 30 35 39 42 43 48 49 49 48 51 49 42 42 38 38 38 35 38
40 38 35 32 32 34 40 35 30 30 31 28 29 31 31 34 37 40 47 48 50 47 48 52 54 51 46 42 37 36 35 35

GFSFLT2_sfc_rhum_027.txt.gz
RH
71 70 82 94 93 92 91 90 88 86 84 81 79 81 80 75 72 72 72 73 74 76 77 75 74 76 77 79 77 74 40 25
71 69 65 67 68 92 90 88 87 86 82 80 81 78 76 74 79 77 76 76 76 76 77 73 69 73 74 69 74 76 26 23
74 58 54 58 63 74 81 87 87 83 75 76 74 43 49 53 78 79 74 71 74 73 68 67 70 64 67 62 66 26 25 24
62 70 65 56 42 48 44 46 47 47 45 48 43 47 50 47 61 76 67 65 70 66 62 63 63 30 29 44 28 30 24 24
63 64 56 46 44 38 34 36 42 47 51 53 55 48 48 45 40 39 41 54 38 42 38 31 38 36 34 35 32 31 25 24
47 47 50 45 36 31 35 39 45 56 62 60 58 49 56 47 36 34 40 34 40 36 33 39 38 35 34 36 35 30 27 27
42 47 47 42 42 41 46 51 66 56 57 62 57 58 63 48 48 39 40 36 36 38 36 36 35 34 34 33 34 35 32 28
42 40 43 43 48 56 60 54 55 55 54 59 73 71 72 66 70 64 49 40 40 39 40 39 39 36 35 35 34 32 30 32
44 48 47 51 59 54 55 58 64 65 63 73 73 70 68 71 68 68 53 48 54 49 49 40 34 30 33 31 30 30 28 32
49 45 56 61 70 79 88 88 72 64 67 68 67 66 77 73 67 57 54 46 38 38 36 37 37 36 37 34 31 27 28 30
57 59 68 77 92 93 89 77 64 61 65 72 65 58 58 52 48 47 46 39 40 41 42 44 42 40 31 28 31 24 26 19
59 69 71 78 90 81 69 63 57 56 54 45 44 43 45 41 43 46 44 41 42 45 50 42 39 34 24 29 34 27 26 27
70 78 69 67 57 54 52 53 47 44 38 41 42 40 40 41 38 41 43 42 44 47 45 44 36 34 34 34 32 33 32 24
64 63 65 62 61 56 44 44 40 36 37 42 39 40 38 36 45 41 41 38 40 39 44 43 38 36 38 36 39 31 25 28
62 61 66 54 41 37 38 40 41 37 38 37 39 39 35 36 38 39 40 38 36 41 42 46 42 39 40 38 41 39 35 28
65 64 42 38 39 36 41 35 40 39 38 37 34 39 36 31 32 38 42 41 44 42 35 44 46 43 38 31 37 36 38 39
45 40 36 39 36 38 39 39 40 35 34 35 32 33 31 30 34 38 44 42 44 46 47 48 45 47 45 38 36 33 34 38
43 38 36 38 38 40 42 40 32 29 32 31 27 28 28 28 28 36 38 39 43 43 45 51 55 52 44 37 37 40 39 44
40 36 37 38 39 35 34 35 34 45 34 28 29 26 26 29 33 35 34 38 40 42 53 60 51 50 50 42 43 43 40 38
36 36 37 35 32 31 34 32 34 28 27 27 29 29 28 31 33 34 36 39 40 53 54 49 58 60 63 57 51 45 40 41

GFSFLT2_sfc_rhum_030.txt.gz
RH
95 90 90 94 92 92 91 88 86 84 83 82 82 82 80 80 80 79 78 78 77 76 77 73 74 74 69 71 73 76 61 49
97 85 86 83 82 90 88 88 86 82 81 80 80 78 78 80 81 80 77 74 74 74 74 69 72 69 70 63 68 66 40 44
96 87 83 79 79 81 86 87 84 80 78 80 80 65 69 71 80 79 74 74 76 73 68 64 75 68 68 73 63 40 40 43
92 81 82 74 50 71 72 69 69 66 64 72 74 70 67 56 73 77 70 69 72 70 64 67 68 49 53 56 49 48 42 42
71 75 73 57 61 58 59 63 66 71 73 76 77 70 71 77 87 69 76 74 66 65 59 55 52 56 54 56 52 47 49 44
66 65 70 66 56 56 57 58 69 86 80 70 76 84 79 73 71 62 60 59 59 61 60 58 58 50 50 53 52 51 48 48
57 62 64 61 64 69 71 83 80 85 80 77 82 78 84 79 76 72 67 63 59 63 62 58 56 51 53 49 47 48 49 51
58 55 62 59 72 76 74 75 75 76 78 81 82 83 86 82 78 75 72 62 60 61 62 59 58 56 50 51 50 49 45 45
57 60 61 70 69 68 71 74 76 78 81 84 84 81 79 78 79 76 69 64 61 61 61 58 59 49 52 51 48 46 38 40
55 49 69 69 73 73 79 90 84 78 83 80 80 80 80 78 74 73 70 73 64 63 65 65 64 63 61 52 51 42 37 41
63 66 75 79 88 93 88 84 71 74 77 79 77 70 68 71 71 73 69 64 66 66 70 70 66 58 44 42 53 49 47 31
66 75 83 82 90 80 75 75 72 72 70 65 64 61 60 63 68 65 64 66 66 70 72 67 64 60 37 40 55 54 44 45
72 80 79 77 75 73 72 74 67 66 59 58 56 58 54 62 66 64 64 64 65 59 62 65 66 63 61 55 53 47 47 49
82 75 74 73 65 64 65 63 62 59 58 58 56 54 53 57 62 60 60 61 62 66 67 70 67 65 68 64 63 53 50 42
80 78 73 73 66 63 58 58 59 57 59 59 56 52 48 50 52 58 62 63 67 69 67 66 70 66 65 68 66 67 54 51
68 69 67 66 65 54 59 54 54 58 60 58 55 52 47 43 46 54 61 67 68 69 55 70 69 72 67 51 62 62 57 56
70 67 65 52 50 54 59 59 62 57 58 54 47 49 49 42 49 61 62 64 66 68 69 67 70 73 72 71 63 61 58 63
75 66 48 51 50 54 60 60 53 53 53 52 50 50 48 51 49 56 58 60 62 66 68 64 73 73 72 71 69 66 64 68
55 46 46 51 56 54 53 51 56 55 53 50 47 47 50 53 51 55 57 57 61 64 69 73 77 77 79 78 74 66 62 67
50 44 45 48 51 48 51 52 52 49 49 42 48 47 48 48 50 54 54 55 59 63 70 75 76 80 79 82 85 74 66 70

GFSFLT2_sfc_rhum_033.txt.gz
RH
89 93 93 93 92 89 86 83 83 83 83 82 82 82 82 82 82 82 80 80 78 75 70 68 67 69 74 74 70 71 60 62
96 97 94 87 85 89 86 84 84 82 81 81 81 80 81 82 81 80 77 75 74 72 71 66 64 63 71 73 65 61 55 71
94 97 91 86 86 84 83 81 80 80 79 79 82 78 77 78 79 78 73 71 71 70 68 66 72 72 69 76 64 50 53 69
98 91 90 82 67 84 84 72 76 76 76 80 79 79 79 70 79 79 73 71 70 70 74 68 63 56 58 62 55 50 53 63
92 91 80 64 69 78 77 78 79 81 77 82 88 78 84 86 89 76 79 76 71 66 61 56 60 63 61 61 56 50 58 53
85 84 69 63 67 69 72 80 89 93 88 84 87 95 94 86 80 77 70 74 71 70 71 60 56 53 53 52 52 54 57 58
70 68 62 62 70 83 86 92 87 94 87 85 89 87 92 90 85 80 75 69 66 64 58 56 56 55 55 55 53 54 47 50
69 65 64 71 79 84 85 86 85 85 90 91 89 94 89 83 83 77 72 66 60 62 58 59 65 60 58 56 51 51 41 40
66 67 79 78 76 78 86 81 82 87 93 93 86 86 85 84 82 76 71 70 66 64 70 70 70 62 63 54 53 46 45 46
63 65 81 78 82 89 88 92 93 95 91 88 82 82 77 80 79 76 75 77 70 76 76 72 70 65 63 56 59 50 50 42
70 79 81 90 95 95 96 90 92 91 91 86 81 75 75 78 78 72 75 76 78 71 75 74 69 66 52 51 61 58 49 44
81 85 91 96 95 96 96 90 92 91 87 80 72 70 70 74 72 72 72 73 69 69 70 73 70 70 47 53 57 56 56 58
89 87 94 93 96 97 87 83 86 85 77 73 71 62 66 71 74 69 67 67 64 68 69 68 71 74 68 68 61 60 48 51
91 87 86 92 91 90 74 80 80 74 68 68 64 64 65 60 65 65 63 66 70 72 70 76 75 73 69 79 75 67 61 49
86 87 83 86 88 74 75 75 72 74 72 71 64 60 55 61 62 64 67 70 72 74 75 70 74 72 71 72 80 82 72 56
89 83 81 82 87 80 69 65 64 73 77 71 61 57 52 47 57 68 72 74 71 76 66 74 72 76 77 60 72 76 72 74
92 88 84 80 78 74 62 75 72 72 69 68 69 64 54 53 59 59 61 68 68 70 74 79 80 80 78 78 76 74 68 71
92 86 85 79 61 67 68 65 62 60 60 58 60 60 62 54 51 58 58 61 65 70 72 80 80 78 73 77 81 80 74 74
90 85 67 65 63 57 56 59 59 57 58 61 49 52 57 53 53 57 60 61 62 67 74 77 79 83 85 84 85 82 75 75
83 63 65 62 57 54 58 56 62 60 57 54 53 53 52 51 55 56 55 58 62 64 72 78 85 88 86 88 90 90 81 80

GFSFLT2_sfc_rhum_036.txt.gz
RH
90 84 82 90 89 88 86 84 84 84 83 82 82 83 83 82 82 81 80 77 74 71 68 66 66 72 71 74 74 76 72 76
94 96 90 92 89 88 87 86 86 84 82 82 83 84 83 82 81 80 77 75 70 69 66 66 70 69 72 72 68 72 70 79
93 96 95 95 90 84 84 82 83 83 81 82 84 84 81 79 79 78 74 72 68 66 65 69 72 75 72 72 63 58 70 72
92 93 93 89 72 81 86 76 83 82 82 81 80 81 83 78 79 78 73 73 70 68 72 71 67 61 64 64 55 52 59 68
98 97 88 82 75 91 89 87 83 82 82 84 86 82 87 89 90 78 74 74 75 69 58 60 57 60 61 62 56 58 65 61
91 94 82 77 78 84 82 78 85 93 93 87 94 97 95 86 90 80 81 78 71 69 67 60 59 58 58 58 58 58 53 55
82 87 83 74 79 81 86 93 96 95 92 85 86 88 91 90 87 78 74 72 68 65 63 64 65 60 61 56 55 48 44 50
80 84 74 75 86 87 96 92 92 92 96 94 92 91 88 86 81 75 71 67 68 71 72 72 72 65 60 57 50 48 49 48
81 79 77 86 90 88 85 87 89 96 98 92 91 88 87 83 79 75 75 72 72 76 74 73 68 57 55 55 56 53 50 47
73 69 85 85 89 83 88 93 97 98 94 90 85 84 81 82 79 79 83 81 80 79 76 73 68 65 61 57 63 52 49 47
83 84 85 93 93 96 96 94 97 97 93 89 85 82 79 79 77 82 80 78 79 73 80 75 70 66 58 62 61 59 58 43
84 83 93 92 95 97 96 94 95 94 88 84 78 79 78 78 80 79 74 68 70 69 69 71 73 73 50 53 61 62 60 58
88 91 96 87 95 97 97 96 96 94 86 78 76 74 76 76 73 70 68 67 72 67 71 68 76 73 69 70 73 65 56 55
90 86 92 87 88 96 86 88 90 86 81 80 72 72 70 68 69 67 66 72 72 72 73 80 78 76 70 84 76 72 68 51
87 89 88 89 91 90 82 76 81 79 80 77 71 68 64 65 65 68 72 73 74 78 77 70 74 77 77 73 80 83 80 65
89 88 88 86 92 86 73 69 75 79 79 75 68 63 63 63 68 75 76 74 70 74 73 79 80 78 81 66 75 76 80 84
95 90 92 84 86 89 76 78 75 82 81 72 71 70 63 59 62 63 66 71 69 67 69 79 88 84 82 82 80 82 77 79
95 95 91 92 91 89 75 74 77 77 80 78 78 66 66 58 57 61 63 63 63 68 74 82 83 83 83 85 86 85 85 82
96 94 93 93 88 86 77 71 70 70 67 72 64 63 59 57 57 59 58 60 64 65 70 78 85 89 89 91 90 89 84 81
94 94 86 74 70 73 69 57 57 64 60 52 60 57 57 55 57 57 57 59 60 63 79 87 87 90 86 90 93 92 91 84

GFSFLT2_sfc_rhum_039.txt.gz
RH
96 94 88 89 88 88 88 88 87 85 84 83 83 84 83 81 80 78 76 74 72 70 70 73 71 73 76 81 80 77 81 83
96 95 89 93 85 88 89 89 89 88 86 86 86 85 84 82 82 79 76 75 71 70 74 76 72 75 74 79 79 70 76 77
96 96 89 91 90 84 86 87 88 86 86 85 88 89 85 79 80 77 75 73 71 74 76 75 75 76 75 71 64 69 68 70
96 94 89 96 75 86 86 82 87 86 86 85 86 88 87 78 81 75 74 74 74 75 76 72 64 64 64 62 62 61 62 70
96 92 95 91 82 91 88 87 86 84 85 86 87 83 91 88 92 78 80 80 72 62 60 61 60 64 64 65 60 57 60 59
82 95 92 89 88 90 87 83 86 91 86 82 89 96 95 94 90 87 80 77 69 68 70 67 66 61 59 58 51 52 54 56
88 96 92 81 85 87 90 91 94 96 95 92 95 95 91 93 86 79 76 70 69 70 71 69 68 61 59 52 50 52 50 54
85 88 93 80 84 85 93 97 95 95 96 91 90 89 89 81 78 74 73 73 76 74 73 70 67 58 58 56 55 53 49 52
87 93 87 83 89 94 97 95 94 98 97 95 90 88 86 81 79 79 78 77 77 76 73 68 64 56 55 59 56 52 50 49
83 79 85 94 95 96 94 95 97 98 97 95 89 87 82 82 83 86 85 81 79 79 75 70 69 67 61 65 65 56 51 49
88 89 94 96 95 96 95 96 97 97 95 94 88 84 81 81 84 86 79 77 79 73 78 72 71 69 58 61 65 61 57 46
91 92 96 95 95 97 98 92 94 95 93 89 83 82 78 80 81 78 71 71 71 69 69 78 77 74 52 55 71 65 60 61
92 95 96 90 94 96 97 95 96 94 87 82 81 82 78 77 76 72 70 70 71 68 74 73 77 78 67 71 77 69 62 58
94 91 94 89 85 96 92 94 95 92 87 85 79 81 73 68 71 69 72 77 75 74 74 83 78 77 75 84 76 70 69 62
91 91 91 88 93 91 92 89 89 88 90 86 79 75 70 69 70 75 76 78 79 80 76 69 75 78 76 70 81 86 84 72
86 90 91 90 90 88 86 86 84 86 87 82 76 74 71 69 72 79 79 76 75 77 75 82 81 79 84 70 78 78 84 88
92 93 93 86 88 88 83 86 84 86 84 78 76 73 71 73 70 67 68 73 66 66 72 80 89 87 86 85 85 89 85 88
97 94 91 87 90 94 85 83 82 86 85 83 81 74 70 64 61 63 64 64 63 70 81 82 83 87 88 90 88 88 89 92
96 95 95 94 92 95 90 91 82 82 76 78 73 71 66 64 62 63 66 65 63 64 71 75 80 88 88 92 93 92 90 88
96 94 93 97 96 96 91 88 85 91 82 76 64 60 59 58 63 64 66 60 60 63 74 84 89 90 88 91 91 91 94 96

GFSFLT2_sfc_rhum_042.txt.gz
RH
97 92 85 89 90 91 90 88 86 85 84 84 85 85 83 80 77 74 74 74 74 73 72 73 78 81 80 82 82 76 79 77
96 93 90 94 90 92 92 90 89 89 88 86 85 84 82 80 80 77 75 74 76 78 75 76 76 80 82 79 75 68 69 70
96 96 93 93 88 88 89 89 90 88 86 86 90 90 86 80 80 79 76 77 78 78 78 78 79 75 70 67 64 67 69 70
92 96 92 92 82 87 90 86 89 89 90 85 88 87 84 81 79 77 78 80 80 76 73 69 63 64 64 59 58 58 59 64
93 93 93 96 86 88 91 89 89 88 86 88 91 90 90 90 90 78 86 72 64 62 62 64 64 64 61 58 54 56 59 56
92 91 97 94 91 87 88 83 87 92 87 83 90 96 94 92 89 84 78 75 71 74 72 68 64 61 57 57 56 56 56 56
89 90 97 89 90 89 89 90 88 92 88 86 92 95 95 94 89 79 75 72 74 75 72 63 61 60 58 56 54 56 56 57
75 97 95 86 89 88 91 95 95 97 97 96 94 93 94 84 79 77 77 77 78 73 68 65 62 59 61 57 55 53 53 57
87 96 95 88 88 90 96 97 97 98 98 94 95 90 83 80 81 81 82 80 76 73 69 67 64 56 62 60 57 53 53 59
92 83 95 92 94 96 98 98 98 98 98 96 91 85 80 82 84 84 86 82 78 75 71 71 71 65 66 67 62 57 54 56
94 94 95 95 95 97 97 96 98 98 98 96 92 85 82 82 85 88 82 80 79 74 76 71 70 69 59 66 67 60 57 45
93 96 96 96 98 98 98 98 98 93 89 92 87 85 80 84 84 81 75 73 76 71 73 80 75 73 51 62 73 66 62 61
94 96 97 96 98 98 99 98 92 86 83 87 86 83 80 81 78 73 74 71 71 71 77 74 74 78 70 74 74 71 66 62
95 94 97 94 89 96 94 96 95 81 81 86 86 81 80 75 74 74 76 78 76 74 75 82 82 80 77 81 76 68 68 65
94 94 95 92 92 91 96 93 91 86 94 93 85 81 74 73 74 78 79 79 80 80 77 75 78 80 80 75 76 77 82 74
93 94 94 92 92 84 88 86 95 92 86 82 84 79 75 72 76 79 82 83 80 80 76 80 80 76 83 73 79 76 81 84
96 96 94 90 90 84 86 92 91 91 91 85 86 83 78 76 80 74 75 76 74 72 76 80 85 84 86 84 84 87 85 86
96 96 95 91 91 94 90 93 93 93 95 90 86 83 81 75 68 72 72 72 69 71 80 80 86 84 87 88 83 86 87 89
96 95 95 93 94 94 95 94 89 88 89 89 85 78 75 70 66 70 71 72 68 74 68 67 82 87 89 91 92 89 85 89
96 94 92 95 95 94 96 89 89 89 88 87 77 67 66 65 64 68 74 79 79 65 70 77 87 90 90 92 89 87 90 92

GFSFLT2_sfc_rhum_048.txt.gz
RH
92 90 85 88 87 86 86 82 82 82 83 83 84 83 81 79 76 76 78 78 78 78 79 79 77 74 74 76 70 58 27 26
95 92 87 84 82 91 90 89 90 88 86 84 84 82 82 81 78 77 76 79 81 82 80 78 74 72 71 71 64 57 25 24
94 89 87 82 80 86 86 89 86 83 79 80 70 38 39 42 75 84 80 81 81 80 78 78 76 68 63 61 55 25 24 23
93 90 88 87 82 80 67 65 61 60 55 52 40 45 40 41 66 86 83 81 79 75 71 69 56 28 29 42 26 28 23 21
91 91 90 87 88 86 70 64 68 62 62 49 53 48 47 43 49 46 48 56 36 39 39 31 36 32 32 32 30 26 21 18
90 90 93 86 89 83 80 73 61 58 52 56 55 50 50 48 43 44 46 39 42 40 37 43 41 39 37 37 34 24 20 18
86 85 86 87 86 89 81 66 57 50 56 55 43 43 52 47 49 42 42 41 40 40 40 37 40 38 35 32 29 29 27 23
58 63 58 53 63 73 65 61 57 58 44 48 58 50 52 46 48 45 43 41 40 39 39 38 35 34 34 31 29 26 29 33
63 54 58 56 60 62 61 55 47 44 46 62 62 57 54 52 48 47 44 44 45 43 42 38 34 28 30 28 25 30 27 32
58 55 58 63 59 51 46 44 50 49 53 58 65 64 62 58 50 48 48 47 42 42 41 36 33 28 30 26 26 25 30 32
61 59 56 61 63 55 53 52 52 53 60 63 67 64 64 56 50 50 54 46 47 44 41 38 35 30 26 27 29 25 28 20
56 57 63 68 61 56 43 48 48 55 56 53 61 54 60 54 49 56 49 47 48 44 44 36 32 30 19 26 32 28 27 28
55 62 63 72 56 50 42 48 50 55 53 57 59 53 55 55 50 55 51 49 47 50 44 44 37 37 32 32 33 37 36 29
52 52 54 60 51 46 42 40 44 46 51 59 60 58 54 53 53 54 52 46 52 50 47 41 38 38 36 36 38 35 36 35
47 47 49 56 55 49 45 45 50 52 55 65 65 74 60 54 59 58 57 48 48 50 48 44 40 40 39 39 40 40 33 30
47 48 49 53 58 52 52 44 49 51 54 52 53 60 60 53 55 57 60 48 48 48 42 42 41 42 41 38 43 37 36 36
49 47 48 51 55 57 53 49 42 46 55 59 62 63 60 54 54 58 62 51 51 50 49 47 43 43 45 44 46 42 42 37
55 51 50 51 56 61 61 59 51 49 61 63 61 63 63 58 51 55 56 51 52 48 49 52 56 62 47 41 40 36 31 36
58 54 51 51 56 59 63 66 64 62 61 62 64 66 75 73 66 59 54 52 48 50 70 64 59 56 51 40 35 34 34 34
57 57 57 51 60 62 62 69 72 65 60 64 72 77 76 70 67 63 55 54 59 71 67 66 56 53 48 45 37 38 38 36

GFSFLT2_sfc_rhum_054.txt.gz
RH
92 89 87 91 92 91 90 87 86 86 87 87 88 89 89 88 86 83 83 82 81 79 79 78 74 68 64 63 69 68 38 42
93 92 92 94 82 86 86 88 91 90 88 86 87 88 88 86 84 83 81 81 80 79 79 76 72 65 61 60 63 66 34 44
93 94 93 92 89 81 85 89 88 86 82 81 77 75 78 65 80 83 82 82 81 80 78 76 71 66 63 63 58 39 36 40
95 94 92 87 83 87 90 84 76 71 66 65 58 65 64 70 86 88 85 83 82 79 78 74 66 48 50 58 43 41 38 42
95 94 90 84 83 90 94 92 89 77 74 68 74 71 71 78 79 76 81 75 60 67 70 57 55 54 54 54 46 38 42 39
93 93 95 94 93 88 89 91 78 73 78 76 74 72 74 72 67 69 68 66 62 62 64 64 57 52 50 47 41 43 42 48
98 90 91 91 91 95 95 90 84 81 78 72 76 74 77 72 71 63 63 65 63 67 65 59 57 51 48 42 40 40 39 55
96 92 92 90 92 94 93 86 74 73 77 75 72 77 79 74 75 68 67 66 64 64 63 62 59 54 47 41 40 41 41 45
93 95 96 94 90 95 87 76 69 73 72 76 76 75 72 70 72 72 68 67 66 65 63 62 58 51 48 43 43 38 41 39
85 76 90 91 89 90 62 63 74 74 74 74 74 71 72 75 74 74 72 73 67 70 67 64 65 57 53 49 42 40 38 40
75 76 74 67 70 63 63 61 68 63 66 70 75 73 74 78 77 74 74 74 74 68 71 70 65 56 48 50 49 47 43 30
62 63 64 62 63 61 60 72 63 59 54 57 69 72 76 81 82 79 76 75 75 73 71 70 65 58 32 39 57 52 49 48
59 62 63 62 67 65 63 68 58 58 56 61 73 72 75 77 84 80 79 77 74 75 74 70 65 58 59 61 63 61 56 52
59 58 55 57 65 64 58 58 59 54 54 67 71 75 73 77 82 77 82 76 77 78 76 76 71 69 68 69 70 72 64 58
61 60 59 64 65 58 53 51 53 54 52 59 65 70 70 72 76 78 78 79 81 82 79 76 75 72 65 71 77 79 68 67
54 55 56 59 61 59 57 51 48 51 53 59 61 73 75 68 72 76 80 79 79 81 74 72 71 70 69 59 68 70 70 66
54 53 51 53 60 62 67 57 54 51 61 63 64 75 77 78 75 78 82 82 81 82 77 73 74 71 70 68 72 66 67 71
56 54 50 50 59 62 64 66 60 58 61 64 75 76 79 78 70 80 85 85 86 85 84 78 75 74 68 65 69 73 69 71
54 52 50 50 53 56 60 68 68 61 64 64 73 75 78 79 85 84 84 81 84 83 84 78 80 80 80 87 76 73 70 69
51 48 50 47 53 57 69 62 71 78 73 62 74 70 76 79 86 81 82 85 85 83 85 86 92 96 94 85 86 82 81 78

GFSFLT2_sfc_rhum_057.txt.gz
RH
97 94 95 97 96 94 91 89 89 90 90 90 89 88 88 83 83 82 82 81 78 75 75 71 68 68 69 70 74 69 62 63
96 95 93 93 90 88 87 93 91 91 93 93 92 90 90 86 84 83 82 80 78 75 74 68 65 63 62 64 64 66 67 74
96 97 95 92 89 87 91 90 89 89 91 92 90 90 88 80 84 85 82 81 79 76 72 68 65 59 55 61 58 48 60 73
96 95 95 90 78 88 92 88 85 78 79 82 84 82 81 80 86 87 85 82 80 78 74 70 60 52 56 58 48 50 56 72
96 94 92 88 86 91 91 94 89 78 76 75 75 84 85 88 87 85 86 80 73 73 71 62 58 60 55 49 46 48 52 57
97 92 91 90 87 92 94 93 90 86 81 75 82 78 77 78 84 82 72 70 64 66 70 70 58 52 48 45 42 50 55 56
97 94 94 94 93 94 90 95 92 92 79 76 77 71 81 75 75 72 70 71 62 69 69 62 58 53 51 44 40 46 56 62
95 95 91 90 94 93 97 95 92 90 88 87 79 76 82 74 81 67 72 72 67 73 68 65 61 53 45 42 43 45 61 66
90 93 92 88 88 90 92 89 93 90 86 77 77 80 78 78 86 84 75 73 69 71 69 68 68 54 46 44 42 45 44 60
89 84 88 88 86 85 82 91 90 88 82 85 74 73 76 79 83 82 75 78 76 76 73 69 68 59 56 51 51 47 41 43
85 88 83 83 87 84 80 72 74 66 74 75 76 77 79 80 84 79 81 86 79 71 74 71 74 70 56 57 53 54 44 36
86 83 83 81 83 70 62 65 70 75 74 73 81 81 80 86 88 87 91 82 80 80 74 78 76 65 38 46 57 58 55 53
83 81 79 78 73 68 60 64 57 77 70 62 77 78 82 87 90 91 92 81 80 80 80 77 76 69 62 64 68 64 57 56
76 70 68 64 60 60 64 61 59 60 66 70 74 79 76 87 92 94 92 85 85 84 80 82 75 72 65 71 70 75 71 60
64 65 62 61 58 62 75 72 73 69 62 70 77 80 80 82 90 91 85 85 89 87 83 78 79 80 68 67 78 83 81 74
61 60 60 58 64 69 69 66 63 62 63 60 71 84 82 79 82 90 87 84 91 88 82 84 79 73 78 62 67 67 69 67
59 61 56 53 56 67 71 67 60 57 61 69 67 76 79 78 79 87 89 86 92 89 89 85 77 79 74 74 77 76 67 71
65 65 63 56 60 68 72 79 70 64 64 69 82 87 84 84 86 90 93 92 91 92 92 89 91 91 89 85 80 80 85 93
64 62 65 64 66 67 68 78 80 76 64 70 93 91 93 88 88 93 95 95 92 89 92 91 92 85 84 93 95 95 88 80
59 58 58 57 60 66 71 70 71 74 78 86 84 82 83 86 92 93 92 91 93 92 94 96 94 93 96 96 92 92 92 91

GFSFLT2_sfc_rhum_060.txt.gz
RH
96 95 93 95 94 95 94 90 90 89 87 85 85 85 84 83 83 82 80 77 74 72 71 71 69 70 76 78 78 75 75 71
98 98 96 93 93 92 91 96 96 92 90 91 92 88 87 86 84 82 79 76 73 71 68 68 67 70 75 78 80 77 82 82
97 96 94 94 94 93 86 93 95 96 95 94 93 90 89 81 85 83 80 77 74 71 72 71 67 70 70 70 68 76 85 88
97 95 94 96 94 91 93 91 92 92 93 95 94 93 87 83 85 85 82 79 76 72 73 68 62 58 56 61 62 70 83 90
96 93 92 91 95 96 94 93 92 92 90 84 90 88 85 85 84 83 85 80 77 69 63 61 60 58 52 53 54 59 71 82
97 95 94 96 96 92 95 91 84 85 81 84 87 83 78 82 81 82 77 75 72 68 70 67 58 50 47 49 49 53 63 71
95 93 92 96 94 97 96 95 90 89 79 82 76 74 77 79 78 79 73 71 67 68 75 63 56 54 47 45 50 52 49 60
96 94 93 92 94 95 97 96 94 89 86 90 77 75 74 75 78 72 74 74 68 74 70 64 59 48 46 45 50 56 63 60
94 95 94 91 88 94 94 94 92 91 90 85 79 74 72 80 77 82 77 76 73 78 72 68 65 52 45 45 47 56 68 59
93 89 88 88 85 90 77 85 89 88 88 86 78 80 74 82 93 93 83 81 81 78 77 76 70 62 54 52 50 51 55 62
93 87 87 84 84 80 80 82 81 78 78 80 79 78 83 86 88 86 86 90 84 74 78 74 75 70 58 57 56 54 48 50
86 85 83 82 81 83 81 82 80 76 74 74 80 83 84 88 90 88 92 92 85 80 76 80 77 76 48 50 59 60 56 57
89 86 87 87 82 83 77 78 74 77 72 72 78 84 82 88 91 91 94 90 83 80 80 79 84 75 64 66 67 69 65 61
90 88 84 80 73 70 69 66 63 63 73 76 76 83 82 88 92 93 95 95 88 89 83 88 84 78 70 72 65 64 71 66
85 83 83 80 74 68 75 78 79 69 70 73 77 79 79 81 89 91 94 89 85 91 86 81 81 85 71 69 84 78 81 78
81 76 75 71 68 66 65 63 61 56 56 58 64 85 82 79 81 90 92 89 87 86 85 83 78 73 80 72 73 69 75 68
75 72 69 66 62 60 67 66 62 60 65 71 72 82 85 84 82 93 93 90 89 92 94 88 81 81 86 83 85 80 72 74
67 67 69 62 61 64 70 72 70 69 70 72 72 72 82 84 83 89 92 90 93 93 93 91 91 90 92 92 93 84 88 91
67 64 68 62 62 64 72 74 77 80 66 67 74 78 82 82 87 88 91 92 93 95 95 96 95 95 95 97 92 92 91 88
66 64 66 61 60 61 65 71 75 79 77 70 74 77 74 81 90 90 95 97 97 97 96 97 96 98 98 98 97 94 94 92

GFSFLT2_sfc_rhum_063.txt.gz
RH
97 95 96 98 95 92 89 88 87 84 85 84 85 85 83 82 80 78 74 72 70 69 75 79 79 80 79 80 80 76 82 78
98 98 96 96 97 92 87 87 84 84 87 89 89 87 85 83 80 76 72 70 69 70 74 79 80 81 80 81 82 78 84 84
99 98 96 94 94 87 82 84 77 84 85 91 90 90 90 85 80 77 73 74 75 71 72 79 81 81 82 82 78 86 90 89
98 98 97 94 91 92 88 88 84 84 85 90 94 94 91 81 80 80 77 75 75 76 73 68 62 68 75 74 82 88 91 91
98 96 94 92 93 95 85 84 86 91 93 92 92 91 88 87 80 81 81 72 61 60 68 59 51 57 61 69 78 88 95 96
98 96 96 94 94 93 95 91 92 95 95 92 85 85 86 89 79 82 76 76 68 66 73 63 53 52 54 58 64 76 90 94
98 95 96 98 98 98 97 97 93 93 92 91 83 79 82 80 77 78 77 71 70 71 69 60 56 49 52 52 52 56 67 81
98 98 97 96 97 95 97 97 96 93 92 89 78 75 78 73 74 73 76 68 70 78 70 63 60 52 51 52 53 50 52 64
97 98 96 95 94 96 97 96 94 92 90 85 81 75 73 72 70 76 74 73 70 80 74 70 61 49 47 53 58 65 57 54
95 93 96 97 94 95 94 91 94 92 89 83 80 77 74 75 85 87 78 82 79 83 81 77 70 60 55 54 54 63 63 57
97 95 93 93 94 93 89 87 81 85 86 79 78 78 82 80 85 85 84 90 88 82 84 79 78 72 59 59 57 56 59 56
90 91 94 89 90 90 85 91 82 78 76 78 82 85 83 89 91 91 93 94 91 88 81 83 79 75 50 53 58 60 59 66
88 88 89 83 88 82 86 88 82 78 73 73 81 85 87 91 94 93 95 95 89 86 85 83 87 82 67 67 68 66 65 63
85 86 96 89 80 76 77 71 75 71 76 77 76 83 84 90 92 93 94 94 91 88 84 90 89 82 75 74 69 70 79 70
84 92 93 90 82 71 76 74 72 68 68 77 82 80 83 86 90 92 94 94 91 93 89 90 91 93 73 69 80 79 84 81
88 91 89 84 85 83 81 73 71 65 61 71 72 82 82 84 87 93 95 95 95 93 90 88 91 89 88 69 70 70 71 72
93 89 87 80 82 74 75 76 72 71 73 72 72 80 88 89 90 93 94 96 94 94 95 94 92 94 92 87 88 92 86 78
92 89 82 81 78 76 76 74 71 70 76 77 75 79 87 92 93 94 94 93 94 94 92 93 93 91 95 94 92 95 95 94
86 86 83 78 77 75 71 74 74 74 66 72 70 77 86 86 94 92 93 93 92 94 96 96 97 95 93 90 95 93 92 92
80 78 80 75 75 74 70 67 71 74 75 69 74 75 71 81 92 92 92 93 96 98 99 99 98 96 94 95 96 96 95 93

GFSFLT2_sfc_rhum_066.txt.gz
RH
96 90 88 86 87 86 83 82 83 84 84 83 82 82 82 80 79 75 76 83 83 81 80 81 80 79 80 81 82 77 80 78
96 95 91 95 96 93 95 90 88 88 87 88 89 87 83 80 75 72 73 80 81 81 81 80 80 81 81 82 82 79 83 82
99 98 95 94 95 96 94 90 77 85 90 91 91 92 89 78 71 73 74 77 79 82 82 82 81 82 82 82 78 84 83 85
97 98 98 96 95 94 91 92 87 76 87 92 94 96 91 75 75 76 75 76 81 83 84 83 82 82 82 80 88 88 88 87
98 98 96 94 94 92 88 96 96 95 91 92 92 89 90 84 74 69 70 70 62 70 70 68 76 79 81 85 88 89 92 90
99 96 96 96 92 92 90 90 92 96 95 94 84 85 93 93 82 84 78 74 71 66 65 65 64 69 75 83 86 90 92 93
99 98 96 96 94 94 93 90 85 91 91 91 80 85 90 88 84 80 75 75 70 73 61 54 55 60 64 68 76 84 90 92
99 98 97 96 93 93 94 95 90 92 92 90 80 78 83 78 76 73 74 72 76 68 59 56 59 56 56 55 58 66 78 88
99 99 97 98 96 97 98 96 96 95 96 91 82 80 82 77 77 75 72 72 77 73 70 67 60 52 56 59 56 55 57 68
97 96 99 99 98 98 98 97 96 98 97 91 78 77 77 77 86 86 76 73 79 77 76 72 63 57 58 62 62 69 60 56
98 98 97 98 97 97 96 93 91 97 95 88 77 79 82 76 76 81 78 87 81 82 85 78 72 66 58 60 60 65 68 53
94 96 96 97 97 97 96 96 93 94 91 80 79 78 81 86 86 86 87 91 88 88 84 83 78 72 51 53 61 62 62 71
92 95 96 94 94 97 95 94 86 90 83 78 82 80 82 86 89 91 92 90 89 88 87 84 84 78 70 69 68 66 66 66
90 89 88 82 78 83 89 93 83 83 85 81 84 85 86 90 91 92 95 97 94 92 87 90 87 81 78 74 73 70 75 69
86 86 85 83 79 74 76 86 80 77 78 80 79 84 87 88 93 95 96 95 94 94 89 87 91 92 78 76 78 81 79 78
86 86 95 91 88 88 82 81 76 68 66 71 72 79 82 83 88 93 95 96 95 91 92 90 91 93 92 83 80 76 76 75
81 86 95 87 88 84 82 82 68 72 72 70 73 76 82 83 86 92 95 96 95 96 96 94 92 94 94 90 88 90 86 84
80 84 92 89 88 87 84 80 79 79 84 83 82 82 83 89 90 93 94 96 96 95 95 96 96 95 96 94 90 90 89 94
88 88 92 91 88 87 83 80 80 78 73 79 86 84 88 91 93 96 96 95 96 96 97 98 98 98 96 96 93 89 93 91
95 95 93 88 87 85 82 79 80 77 82 74 85 85 80 78 91 95 95 95 96 98 98 98 98 99 98 98 97 92 92 94

GFSFLT2_sfc_rhum_069.txt.gz
RH
94 83 81 90 89 91 88 89 86 84 82 81 82 81 82 79 76 77 81 85 84 82 81 81 80 80 81 82 81 73 48 47
92 90 93 86 88 88 87 87 86 83 84 84 84 85 83 80 80 84 84 84 82 80 82 81 81 82 81 82 82 75 48 48
95 95 98 98 95 91 92 89 89 79 83 87 83 73 74 65 71 86 85 82 80 81 82 82 82 82 82 82 74 49 48 46
97 98 98 98 97 96 95 94 91 84 83 77 73 81 68 61 74 84 83 83 82 82 83 83 66 52 59 72 50 55 50 49
95 97 96 96 98 97 97 96 93 92 84 86 77 68 69 66 66 65 69 76 60 64 65 49 56 52 54 56 58 56 51 49
96 96 98 98 97 92 97 88 95 94 85 81 72 69 71 68 58 57 62 62 67 65 55 61 60 56 57 61 58 53 53 50
99 95 96 96 94 92 91 85 79 92 90 76 65 66 69 57 62 55 50 53 56 55 55 54 56 57 56 58 59 60 60 52
98 99 96 95 94 92 95 93 87 93 91 82 74 67 67 57 56 52 50 47 49 48 50 48 47 50 57 58 59 59 60 61
95 99 97 95 95 90 92 95 94 92 92 91 80 70 68 60 54 55 56 53 51 49 49 46 43 40 45 49 52 58 59 62
86 97 97 94 93 90 95 96 95 93 96 92 82 69 68 63 56 56 60 58 50 48 48 44 43 40 42 40 39 42 51 60
94 97 98 97 97 96 95 97 94 96 98 93 78 70 68 61 58 60 66 66 61 55 54 49 48 44 42 46 45 44 45 34
94 96 98 98 98 97 96 95 94 95 97 93 79 65 66 71 69 69 68 70 65 63 64 60 51 47 35 40 46 46 47 46
91 96 97 96 94 92 96 96 93 94 94 91 80 72 69 74 75 74 76 72 70 72 70 74 64 60 55 52 49 50 48 42
86 91 92 89 86 82 83 87 88 88 90 91 84 78 69 73 77 73 72 80 82 83 82 77 79 71 65 58 61 55 50 47
83 85 87 84 86 89 92 94 94 94 95 95 90 81 76 77 82 79 83 84 86 89 88 79 76 78 70 63 66 65 56 52
78 78 78 74 78 85 90 80 88 86 86 85 90 90 86 80 81 87 91 88 88 91 87 79 76 78 75 66 66 58 61 63
76 76 75 73 71 71 77 81 76 83 83 85 83 87 87 83 80 90 86 91 90 84 86 83 81 77 77 73 73 72 66 62
78 77 76 74 73 71 71 72 74 72 72 70 75 78 79 81 77 77 80 76 81 83 83 82 82 82 78 80 75 74 76 84
75 73 76 78 75 73 73 70 71 69 69 64 73 71 68 71 74 75 75 76 76 77 81 83 83 85 85 86 87 86 92 85
76 75 77 79 77 73 71 70 65 64 64 59 62 60 59 63 70 68 69 70 74 76 80 82 84 90 86 90 96 95 95 89

GFSFLT2_sfc_rhum_072.txt.gz
RH
75 70 70 92 89 82 84 89 87 85 84 83 83 84 83 83 82 82 82 84 83 80 81 82 80 80 81 80 76 73 33 34
89 74 68 63 72 93 88 80 88 86 86 85 86 84 81 81 83 86 87 85 82 81 83 82 81 82 82 82 76 68 33 33
91 83 82 85 85 80 83 82 87 89 84 87 85 65 59 63 70 89 87 84 82 83 83 83 83 82 82 79 76 33 34 32
77 83 83 90 98 94 96 93 88 88 85 80 76 69 57 47 74 89 86 83 83 84 84 84 67 45 50 68 33 37 34 35
82 92 89 96 98 98 99 98 98 92 83 82 78 70 58 58 67 66 62 68 48 56 58 38 39 37 40 38 42 38 35 35
77 82 89 93 98 97 97 98 97 96 91 84 78 63 60 62 57 55 51 45 48 44 39 41 43 40 41 45 43 37 35 37
91 88 87 94 94 97 96 95 95 95 94 80 66 58 57 55 54 48 46 45 46 43 41 41 42 40 40 42 42 42 43 36
96 97 95 97 95 97 96 94 91 94 95 75 68 58 60 50 55 47 46 44 43 39 38 37 36 36 40 40 42 43 44 44
95 97 97 96 94 98 92 94 90 94 92 75 59 55 56 56 48 44 41 40 43 39 40 35 34 33 38 40 40 44 42 46
93 92 95 96 94 97 95 93 94 92 90 74 58 52 58 57 45 41 39 42 39 38 37 37 34 32 36 36 35 39 43 45
92 93 95 92 90 96 95 95 94 94 94 86 68 52 55 44 41 43 49 39 38 39 39 39 38 34 32 31 33 32 40 36
88 90 97 94 94 91 94 95 92 97 97 89 76 56 57 44 43 54 53 45 46 44 48 42 41 39 29 35 38 36 34 32
80 96 97 96 94 95 94 95 93 95 91 90 79 59 50 50 43 54 58 54 53 57 55 59 50 47 43 44 43 43 42 36
82 91 95 89 90 87 91 89 92 86 92 89 84 66 50 59 67 66 64 58 59 64 68 68 62 68 57 52 58 51 43 42
66 81 85 84 80 78 88 94 96 96 96 92 91 79 57 64 77 73 77 65 61 69 70 68 67 69 64 60 60 56 56 45
62 71 71 80 80 78 73 70 86 79 85 87 93 85 74 69 77 78 79 72 65 72 77 65 63 75 67 62 58 54 54 62
68 68 63 76 82 76 75 65 74 81 83 89 91 94 87 73 80 82 81 77 80 77 79 71 62 67 68 62 64 61 60 59
68 63 61 68 73 77 82 79 74 78 90 86 92 94 91 88 74 74 71 81 72 72 80 77 73 68 59 64 62 60 60 62
59 55 56 61 66 69 72 73 72 74 81 80 86 86 82 79 80 80 70 64 80 74 69 74 62 66 68 62 63 64 62 67
58 52 51 54 62 61 62 62 68 65 65 60 65 64 64 65 72 74 70 67 73 72 69 59 64 67 69 68 61 63 66 73

GFSFLT2_sfc_rhum_075.txt.gz
RH
70 72 75 88 89 89 90 94 84 88 87 86 85 84 81 81 81 82 84 83 84 84 84 84 82 80 77 76 72 71 31 33
83 72 68 65 74 88 96 95 89 83 86 87 87 84 84 83 85 86 85 84 84 82 85 84 82 81 79 77 71 67 31 32
92 75 69 72 70 74 84 82 92 88 86 86 86 80 75 68 76 87 86 85 85 85 85 85 84 82 77 75 77 30 30 33
78 77 78 79 92 90 90 80 78 92 83 77 89 79 70 66 87 88 86 86 86 86 86 85 65 43 45 66 40 32 31 38
64 70 76 86 81 84 91 93 96 92 91 87 92 88 66 83 87 70 69 69 54 59 64 42 39 37 40 38 37 35 33 38
65 66 76 79 80 97 95 93 98 96 93 93 94 95 69 74 76 58 51 43 50 46 43 40 40 38 38 42 38 32 34 41
73 75 77 78 83 97 98 97 98 95 96 93 95 91 73 73 66 54 45 43 44 43 38 38 39 39 40 41 38 37 38 40
87 80 87 91 85 88 96 98 97 97 96 95 93 82 70 64 64 54 47 44 40 38 39 38 36 37 40 40 39 40 38 42
90 92 85 90 86 94 94 96 96 97 95 94 88 70 65 63 57 49 46 45 46 41 40 35 33 32 38 38 38 41 40 41
84 88 96 93 95 98 95 94 95 97 96 93 79 63 60 61 52 50 46 51 42 38 36 34 34 34 37 36 36 38 42 43
80 95 96 97 97 97 95 92 92 93 94 89 77 64 60 52 48 47 58 51 46 40 40 37 37 36 34 34 35 36 42 38
79 92 90 95 98 95 95 96 94 92 93 82 62 54 57 52 47 59 55 46 44 40 46 40 39 36 26 31 36 35 37 40
66 89 92 92 96 98 97 97 93 92 93 79 73 52 51 53 45 52 51 43 44 51 47 52 45 42 40 44 45 48 45 37
73 84 80 87 89 86 88 85 87 85 90 85 74 70 53 52 54 56 54 48 57 60 60 56 53 54 49 52 60 55 51 47
59 77 88 78 78 78 82 88 89 90 92 92 85 76 62 48 52 59 65 64 64 68 66 64 74 64 67 75 80 72 71 50
60 72 81 83 80 87 92 87 94 86 88 86 92 85 74 51 57 66 73 65 73 67 64 66 76 84 65 58 66 68 78 81
51 69 70 80 82 84 86 84 82 84 93 88 87 92 81 65 67 78 81 73 83 79 77 70 75 81 83 76 59 62 66 73
53 65 66 69 72 70 76 74 76 83 90 92 86 93 92 80 71 75 82 83 83 77 72 77 79 76 75 72 68 67 62 65
53 53 55 68 73 72 73 67 68 73 73 84 87 83 89 88 77 74 73 74 73 72 74 76 79 82 70 62 59 59 60 62
51 48 47 52 68 70 72 67 62 60 66 61 65 72 76 79 82 75 70 72 68 71 71 72 78 76 72 68 56 60 62 64

GFSFLT2_sfc_rhum_078.txt.gz
RH
85 80 79 92 89 89 87 89 92 95 86 87 86 86 84 83 83 84 86 84 84 84 84 83 82 79 72 74 75 74 45 51
85 84 83 80 87 90 92 92 92 94 85 88 87 85 85 86 86 86 87 86 85 84 86 84 82 78 74 73 73 75 44 50
90 89 84 84 87 92 90 90 91 98 85 88 89 81 82 84 83 87 87 87 87 86 86 86 82 75 72 75 76 46 47 56
86 88 84 84 89 90 91 92 96 98 97 88 87 88 86 81 88 88 88 88 88 88 86 82 68 65 70 71 63 45 50 59
82 85 85 87 91 93 91 95 95 97 98 96 93 94 92 91 88 84 88 86 80 82 78 59 57 58 61 62 60 46 53 58
72 83 86 87 92 94 93 94 96 98 98 93 94 97 95 96 91 79 72 68 72 74 66 62 57 54 58 59 53 47 56 64
80 82 84 85 88 95 97 98 97 96 96 93 92 94 91 84 88 62 58 61 61 61 60 54 58 54 59 55 55 50 57 62
84 87 87 86 91 94 99 98 98 95 96 94 92 94 92 80 82 57 60 56 55 56 60 61 59 57 60 57 53 52 56 62
85 89 89 89 87 92 94 98 98 96 95 96 94 93 87 78 75 61 61 55 55 64 60 60 60 53 58 60 59 54 56 61
82 89 91 93 91 94 94 95 96 97 96 96 95 90 82 76 72 65 64 60 56 61 61 60 61 60 64 62 61 59 61 59
79 92 96 94 93 97 94 94 96 95 95 94 89 86 74 73 81 73 79 58 66 54 63 61 62 61 58 61 63 62 63 52
74 93 97 98 98 97 96 96 96 94 94 90 85 80 75 78 80 84 83 80 70 66 62 60 61 58 36 48 62 63 64 69
79 94 97 97 98 98 98 97 94 96 92 90 87 73 70 72 68 75 74 69 64 66 68 64 66 64 64 67 64 63 63 59
82 86 91 93 91 88 89 91 89 85 88 79 76 72 64 65 68 67 66 64 67 71 68 72 71 71 69 70 78 75 70 66
69 76 85 89 85 84 87 91 92 91 94 89 85 80 63 60 69 67 68 68 71 74 75 74 82 76 75 87 89 89 85 73
65 77 76 84 86 88 90 90 95 88 86 84 83 84 79 61 69 74 78 78 78 75 75 79 88 89 85 79 85 84 90 90
64 73 73 79 84 84 88 88 82 80 88 91 88 88 87 80 67 80 80 82 85 82 84 88 91 91 86 90 87 88 86 87
66 71 75 77 82 86 82 83 84 82 90 94 95 91 88 86 76 80 86 84 88 87 81 89 93 85 88 86 84 86 90 89
62 70 70 77 84 86 86 83 81 88 83 84 85 89 89 82 82 81 81 80 81 88 91 90 88 87 87 81 82 82 80 83
60 64 66 73 82 82 82 79 80 80 84 80 75 75 80 75 80 79 78 76 76 80 82 87 86 88 85 83 84 81 79 84

GFSFLT2_sfc_rhum_084.txt.gz
RH
97 96 92 91 91 90 93 93 88 85 87 89 89 92 86 83 85 85 85 85 87 86 87 82 81 80 79 80 80 77 70 68
97 96 94 97 96 90 90 91 89 88 89 91 92 95 92 83 88 88 86 86 86 85 85 82 81 80 78 80 80 78 72 76
98 96 94 96 97 94 89 88 89 87 88 89 91 86 93 78 91 90 89 87 86 88 84 84 81 81 80 80 75 69 72 76
97 95 97 98 97 98 98 94 95 96 94 93 95 92 90 90 92 91 90 90 88 87 84 81 73 68 69 73 68 70 73 80
97 97 97 98 97 99 99 100 99 98 97 92 94 92 95 96 94 92 91 90 92 86 80 69 69 66 63 68 70 71 75 74
97 97 97 97 99 98 98 98 99 99 98 98 96 98 97 95 92 89 92 96 95 93 83 72 70 66 64 69 72 73 78 74
99 97 97 95 96 98 99 97 98 97 98 98 97 97 96 93 92 88 85 87 87 86 76 67 67 67 63 68 74 75 80 77
98 97 96 95 97 97 99 97 98 99 96 97 96 96 94 91 88 84 82 76 73 68 68 69 63 64 64 69 73 73 78 84
97 98 96 97 98 97 99 97 98 97 98 95 95 93 93 87 82 80 77 70 65 68 72 70 66 67 67 73 74 75 80 82
97 95 97 99 97 98 99 99 99 97 98 95 94 92 88 78 72 74 73 70 69 78 70 73 68 74 76 73 75 77 78 81
95 96 97 98 98 98 99 98 99 98 97 95 93 92 86 74 66 73 75 64 77 75 80 68 69 72 74 75 77 81 81 75
97 95 96 97 96 94 99 98 98 98 96 94 92 89 86 77 74 83 81 65 73 79 70 72 65 71 57 71 76 82 86 84
98 96 97 96 98 98 96 98 98 99 95 93 92 88 87 82 74 83 82 67 66 72 70 64 72 74 76 75 76 84 83 87
96 97 97 94 92 91 94 92 95 91 93 95 90 88 83 85 73 80 74 80 73 71 71 76 74 73 70 73 73 71 76 81
91 90 96 95 92 90 91 92 96 97 96 95 94 89 82 82 82 80 85 83 75 72 68 61 68 80 64 84 90 78 84 82
93 86 92 93 93 92 93 92 90 86 91 86 88 92 84 74 78 82 84 86 80 69 63 63 82 75 81 82 83 87 85 90
94 84 79 83 92 90 91 92 89 89 94 95 90 93 88 79 78 82 83 86 83 74 74 81 81 83 76 94 93 97 93 95
93 90 85 81 89 91 90 90 90 92 91 90 88 89 94 88 79 79 78 85 86 85 82 80 85 84 86 80 87 92 96 94
97 94 92 86 88 90 90 88 82 88 88 85 82 84 90 88 86 84 79 78 77 78 87 88 86 86 80 73 78 82 86 89
91 95 96 96 91 88 86 85 84 83 84 81 82 79 76 75 85 85 82 77 85 83 83 85 91 89 88 89 82 84 86 89

GFSFLT2_sfc_rhum_087.txt.gz
RH
97 95 96 96 95 96 96 93 94 92 90 85 89 86 89 88 82 80 82 83 86 88 89 85 85 86 86 84 82 79 74 70
99 99 94 95 97 94 93 95 96 93 90 87 88 90 87 91 84 77 80 88 87 88 86 82 84 85 85 84 82 78 71 69
99 97 96 96 97 95 90 90 91 90 91 91 92 89 93 90 89 75 80 89 89 87 84 83 85 85 84 83 77 74 72 79
99 98 98 97 96 98 98 96 96 97 96 96 94 93 94 89 86 86 86 91 90 86 82 84 80 80 82 78 76 75 77 82
99 99 98 98 98 99 98 99 99 98 98 97 97 95 96 96 95 98 95 89 87 82 77 75 75 78 78 81 75 75 77 77
98 98 98 98 95 97 96 98 98 99 97 95 96 97 96 93 97 98 93 88 94 89 80 76 74 72 77 79 76 75 80 81
98 98 98 99 97 98 99 96 99 97 98 95 92 95 94 96 92 93 94 91 86 81 75 72 71 73 76 77 77 77 82 79
99 98 98 98 98 99 98 97 98 98 99 96 93 96 96 93 91 91 87 82 85 77 71 72 72 71 78 77 77 79 84 89
98 99 98 98 98 99 99 98 97 97 99 99 98 96 96 91 91 87 82 77 74 70 70 72 72 68 78 79 78 81 88 90
99 97 98 98 97 96 100 99 97 98 97 98 98 97 94 92 87 85 79 75 71 69 65 69 75 74 81 80 79 82 87 92
98 98 98 97 95 96 97 99 99 97 99 98 97 97 94 89 82 81 77 72 74 69 75 66 78 82 79 85 89 89 89 83
93 98 99 95 96 99 99 100 99 99 98 98 97 96 93 88 85 85 76 75 77 84 72 78 79 80 69 80 89 91 90 93
90 97 97 96 96 99 99 99 99 99 98 97 96 94 90 86 90 86 75 66 72 79 76 76 87 83 86 87 87 91 92 94
90 89 91 96 87 86 90 95 97 96 98 96 98 95 87 83 87 80 69 62 74 83 72 79 82 82 81 81 91 85 88 87
89 88 87 96 94 88 92 97 98 99 99 99 99 95 91 89 90 79 78 63 75 75 74 72 77 80 68 86 91 88 90 86
97 88 86 86 95 95 94 92 97 94 95 95 98 95 96 90 88 92 83 84 77 76 68 64 80 75 81 80 78 84 87 91
95 97 86 85 88 90 93 94 88 91 94 95 96 97 92 89 89 90 90 86 80 78 77 80 83 81 78 93 94 96 91 90
96 87 87 88 86 91 90 91 87 94 95 96 96 96 94 92 86 85 83 87 88 82 85 84 87 81 74 77 80 88 94 92
86 83 80 83 92 91 91 88 85 87 88 90 91 92 94 92 89 86 80 86 87 88 88 89 88 87 78 72 80 85 88 90
85 88 81 80 83 85 87 86 86 93 93 92 92 88 86 92 92 86 80 81 87 86 88 87 85 88 84 78 76 77 86 87